Regional Weather Roundup
Issued by NWS

Home | Current Version | Previous Version | Text Only | Print | Product List | Glossary On
Versions: 1 2 3 4 5 6 7 8 9 10 11 12 13 14 15 16 17 18 19 20 21 22 23 24 25 26 27 28 29 30 31 32 33 34 35 36 37 38 39 40 41 42 43 44 45 46 47 48 49 50
000
ASUS43 KTOP 260659
RWRKS

WEATHER ROUNDUP FOR KANSAS
NATIONAL WEATHER SERVICE GOODLAND KS
200 AM CDT TUE SEP 26 2017

NOTE:  "FAIR" INDICATES FEW OR NO CLOUDS BELOW 12,000 FEET WITH NO
SIGNIFICANT WEATHER AND/OR OBSTRUCTIONS TO VISIBILITY.

KSZ001>006-013>018-027>032-041>047-260800-
NORTHWEST KANSAS

CITY           SKY/WX    TMP DP  RH WIND       PRES   REMARKS
GOODLAND       CLOUDY    47  46  97 N9        30.13F
HAYS           CLOUDY    52  50  93 N10       30.08R
HILL CITY      CLOUDY    52  50  93 N8        30.10R
RUSSELL        CLOUDY    53  52  96 NW12      30.06R FOG
$$

KSZ061>065-074>080-084>089-260800-
SOUTHWEST KANSAS

CITY           SKY/WX    TMP DP  RH WIND       PRES   REMARKS
DODGE CITY     CLOUDY    53  52  96 N12G22    30.08R FOG
ELKHART          N/A     50  52 100 N12         N/A
GARDEN CITY    CLOUDY    52  50  93 N10       30.09S
GREAT BEND     CLOUDY    54  53  97 N8        30.06R
LIBERAL        CLOUDY    53  52  96 N15       30.08S
$$

KSZ066>073-081>083-090>101-260800-
SOUTHEAST KANSAS

CITY           SKY/WX    TMP DP  RH WIND       PRES   REMARKS
CHANUTE        CLOUDY    69  64  84 N6        29.94S
COFFEYVILLE    PTCLDY    68  66  93 N3        29.92F
HUTCHINSON     CLOUDY    60  60 100 NW13      30.01R FOG
NEWTON         LGT RAIN  63  62  97 NW12      29.99R
PARSONS        PTCLDY    68  64  87 N3        29.94F
WICHITA INTL   CLOUDY    64  64 100 NW12      29.98R
WICHITA JABRA  CLOUDY    63  63 100 NW10      29.98R
WICHITA MCCONL LGT RAIN  64  61  88 N9        29.97S
WINFIELD       CLOUDY    66  66 100 CALM      29.96R
$$

KSZ007>012-019>026-033>040-048>060-102>105-260800-
NORTHEAST KANSAS

CITY           SKY/WX    TMP DP  RH WIND       PRES   REMARKS
CONCORDIA      CLOUDY    55  55 100 N8        30.02S
EMPORIA        CLOUDY    65  64  97 N5        29.95F
LAWRENCE       CLOUDY    66  66 100 CALM      29.94R
MANHATTAN      CLOUDY    66  65  96 CALM      29.97R
OLATHE IND     LGT RAIN  67  63  87 NE5       29.94F
OLATHE EXE     CLOUDY    67  64  90 NE5       29.94S
SALINA         CLOUDY    60  57  89 NW14      30.01R
TOPEKA BILLARD CLOUDY    67  67 100 NW3       29.95R
TOPEKA FORBES  CLOUDY    68  67  96 CALM      29.95R
$$




USA.gov is the U.S. government's official web portal to all federal, state and local government web resources and services.